TimeMDT,TemperatureF,Dew PointF,Humidity,Sea Level PressureIn,VisibilityMPH,Wind Direction,Wind SpeedMPH,Gust SpeedMPH,PrecipitationIn,Events,Conditions,WindDirDegrees,DateUTC
12:53 AM,57.0,52.0,83,30.13,10.0,Calm,Calm,-,N/A,,Clear,0,2013-06-29 06:53:00
1:53 AM,55.9,52.0,87,30.13,10.0,SSW,4.6,-,N/A,,Clear,210,2013-06-29 07:53:00
2:53 AM,54.0,51.1,90,30.12,10.0,SSW,3.5,-,N/A,,Clear,200,2013-06-29 08:53:00
3:53 AM,55.9,52.0,87,30.12,10.0,South,5.8,-,N/A,,Clear,170,2013-06-29 09:53:00
4:53 AM,53.1,51.1,93,30.12,10.0,Calm,Calm,-,N/A,,Clear,0,2013-06-29 10:53:00
5:53 AM,54.0,52.0,93,30.12,10.0,SSW,6.9,-,N/A,,Partly Cloudy,210,2013-06-29 11:53:00
6:53 AM,63.0,55.9,78,30.10,10.0,NE,3.5,-,N/A,,Clear,50,2013-06-29 12:53:00
7:53 AM,66.9,57.0,70,30.11,10.0,NNE,3.5,-,N/A,,Clear,30,2013-06-29 13:53:00
8:53 AM,71.1,55.0,57,30.12,10.0,North,3.5,-,N/A,,Clear,10,2013-06-29 14:53:00
9:53 AM,75.0,57.0,53,30.12,10.0,NNE,8.1,-,N/A,,Clear,30,2013-06-29 15:53:00
10:53 AM,77.0,53.1,43,30.12,10.0,NNE,8.1,-,N/A,,Clear,20,2013-06-29 16:53:00
11:53 AM,78.1,54.0,43,30.13,10.0,NNE,8.1,-,N/A,,Clear,20,2013-06-29 17:53:00
12:53 PM,79.0,52.0,39,30.11,10.0,NNE,9.2,-,N/A,,Clear,20,2013-06-29 18:53:00
1:53 PM,80.1,52.0,38,30.09,10.0,NE,11.5,16.1,N/A,,Clear,50,2013-06-29 19:53:00
2:53 PM,82.0,54.0,38,30.08,10.0,North,13.8,-,N/A,,Clear,350,2013-06-29 20:53:00
3:53 PM,81.0,54.0,39,30.06,10.0,NNE,13.8,19.6,N/A,,Clear,30,2013-06-29 21:53:00
4:53 PM,81.0,54.0,39,30.06,10.0,NNE,15.0,19.6,N/A,,Clear,30,2013-06-29 22:53:00
5:53 PM,79.0,53.1,40,30.05,10.0,NE,10.4,-,N/A,,Clear,50,2013-06-29 23:53:00
6:53 PM,77.0,52.0,42,30.04,10.0,NE,12.7,-,N/A,,Clear,50,2013-06-30 00:53:00
7:53 PM,73.0,52.0,48,30.05,10.0,ENE,9.2,-,N/A,,Clear,60,2013-06-30 01:53:00
8:53 PM,66.9,51.1,57,30.05,10.0,East,8.1,-,N/A,,Clear,80,2013-06-30 02:53:00
9:53 PM,62.1,52.0,70,30.09,10.0,Calm,Calm,-,N/A,,Clear,0,2013-06-30 03:53:00
10:53 PM,62.1,51.1,67,30.09,10.0,East,3.5,-,N/A,,Clear,90,2013-06-30 04:53:00
11:53 PM,59.0,51.1,75,30.10,10.0,WSW,3.5,-,N/A,,Clear,240,2013-06-30 05:53:00